World > North America > United States > South Dakota > Bancroft

Bancroft, SD Hourly Weather Conditions

Feedback E-mail the Weather

Quick WX

Bancroft, SD Weather Maps

°F °C°F °C
Bancroft Weather Map
UTC Time: 2/8/2023, 17:46
Your Time:

Bancroft, SD Regional Weather

Expires:202302081800;;015040
ASUS43 KFSD 081710
RWRFSD

WEATHER ROUNDUP FOR SE SOUTH DAKOTA/SW MINNESOTA/NW IOWA
NATIONAL WEATHER SERVICE SIOUX FALLS SD
1100 AM CST WED FEB 08 2023

NOTE: "FAIR" INDICATES FEW OR NO CLOUDS BELOW 12,000 FEET WITH NO
SIGNIFICANT WEATHER AND OR OBSTRUCTIONS TO VISIBILITY.



SDZ038>040-050-052>070-081800-
SOUTHEAST SOUTH DAKOTA
  
CITY           SKY/WX    TMP DP  RH WIND       PRES   REMARKS
BROOKINGS      SUNNY     30  24  78 S9        29.99F WCI  22 TC  -1   
CHAMBERLAIN    SUNNY     32  26  77 SW6       29.95F WCI  26 TC   0   
HURON          SUNNY     29  23  78 S9        29.96F WCI  20 TC  -2   
MADISON        SUNNY     28  28 100 S8        29.98S WCI  20 TC  -2   
MITCHELL       SUNNY     32  24  72 SE6       29.99F WCI  26 TC   0   
SIOUX FALLS    MOSUNNY   39  27  62 S10       30.00F TC   4           
WINNER         SUNNY     35  25  66 SW17      29.93F WCI  25 TC   2   
YANKTON        SUNNY     31  25  78 SE5       30.03F WCI  26 TC  -1   
$$


SKY/WX - Weather  TMP - Temperature  DP - Dew Point  RH - Humidity
WIND - Wind Direction/Speed PRES - Barometric Pressure VSB - Visibility
WCI - Wind Chill Index E13G22 Wind - East Wind 13 mph/Gusts of 22 mph

Trending Headlines

Trending Entertainment Headlines

Bancroft Radar Loop

Use the map search tool if you want to place a location marker on the radar map...

Bancroft Quick Facts

National Two Day Weather Forecast


E-mail the Bancroft Weather Forecast

Voice your opinion or tell us about page issues...